Marshfield, WI

11:06 PM CDT on July 24, 2017 (GMT -0500)
Marshfield Municipal

Weather History for KMFI - February, 2011

Change the Weather History Date:

Friday, February 4, 2011

  Actual Average Record
Temperature  
Mean Temperature 19 °F -  
Max Temperature 28 °F 24 °F 51 °F (2005)
Min Temperature 10 °F 3 °F -29 °F (1923)
Degree Days  
Heating Degree Days 46    
Moisture  
Dew Point 11 °F    
Average Humidity 70    
Maximum Humidity 85    
Minimum Humidity 62    
Precipitation  
Precipitation 0.00 in - - ()
Sea Level Pressure  
Sea Level Pressure 29.88 in    
Wind  
Wind Speed 10 mph (SW)    
Max Wind Speed 16 mph    
Max Gust Speed -    
Visibility 10 miles    
Events      
Averages and records for this station are not official NWS values.
T = Trace of Precipitation, MM = Missing Value Source: NWS Daily Summary

Daily Weather History Graph

Daily Weather History Graph

Search for Another Location

Airport or City:

Trip Planner

Search our weather history database for the weather conditions in past years. The results will help you decide how hot, cold, wet, or windy it might be!

Date:

Astronomy

Feb. 04, 2011 Rise Set
Actual Time 7:16 AM CST 5:13 PM CST
Civil Twilight 6:45 AM CST 5:44 PM CST
Nautical Twilight 6:10 AM CST 6:19 PM CST
Astronomical Twilight 5:36 AM CST 6:53 PM CST
Moon 7:38 AM CST (2/4) 7:12 PM CST (2/4)
Length of Visible Light 10h 58m
Length of Day
9h 57m
Waxing Crescent, 3% of the Moon is Illuminated
Feb 4
Waxing Crescent
Feb 11
First Quarter
Feb 18
Full
Feb 24
Last Quarter
Mar 4
New

Hourly Weather History & Observations

Time (CST) Temp. Windchill Dew Point Humidity Pressure Visibility Wind Dir Wind Speed Gust Speed Precip Events Conditions
12:11 AM 17.6 °F 5.7 °F 6.8 °F 63% 30.00 in 10.0 mi WSW 10.4 mph - N/A   Overcast
12:38 AM 17.6 °F 6.4 °F 6.8 °F 63% 29.99 in 10.0 mi WSW 9.2 mph - N/A   Overcast
12:54 AM 17.1 °F 5.0 °F 6.1 °F 62% 30.06 in 10.0 mi WSW 10.4 mph - N/A   Overcast
1:54 AM 16.0 °F 3.6 °F 6.1 °F 65% 30.07 in 10.0 mi WSW 10.4 mph - N/A   Overcast
2:54 AM 16.0 °F 6.3 °F 7.0 °F 68% 30.05 in 10.0 mi WSW 6.9 mph - N/A   Overcast
3:31 AM 15.8 °F 6.1 °F 6.8 °F 68% 29.97 in 10.0 mi WSW 6.9 mph - N/A   Overcast
3:54 AM 16.0 °F 4.4 °F 7.0 °F 68% 30.03 in 10.0 mi WSW 9.2 mph - N/A   Overcast
4:54 AM 16.0 °F 5.3 °F 7.0 °F 68% 30.02 in 10.0 mi SW 8.1 mph - N/A   Overcast
5:50 AM 12.2 °F 0.7 °F 3.2 °F 67% 29.94 in 10.0 mi SW 8.1 mph - N/A   Scattered Clouds
5:54 AM 12.0 °F 1.5 °F 3.9 °F 70% 30.01 in 10.0 mi SW 6.9 mph - N/A   Partly Cloudy
6:54 AM 10.9 °F -1.8 °F 3.9 °F 73% 29.97 in 10.0 mi SSW 9.2 mph - N/A   Clear
7:54 AM 10.0 °F -1.9 °F 3.0 °F 73% 29.94 in 10.0 mi SSW 8.1 mph - N/A   Clear
8:54 AM 12.0 °F 0.5 °F 3.9 °F 70% 29.93 in 10.0 mi SSW 8.1 mph - N/A   Clear
9:54 AM 16.0 °F 1.1 °F 8.1 °F 71% 29.90 in 10.0 mi SSW 15.0 mph - N/A   Clear
10:46 AM 19.4 °F 7.9 °F 10.4 °F 68% 29.84 in 10.0 mi SSW 10.4 mph - N/A   Mostly Cloudy
10:54 AM 19.0 °F 8.2 °F 10.0 °F 68% 29.91 in 10.0 mi SSW 9.2 mph - N/A   Mostly Cloudy
11:29 AM 21.2 °F 10.1 °F 10.4 °F 63% 29.82 in 10.0 mi SSW 10.4 mph - N/A   Scattered Clouds
11:54 AM 21.9 °F 10.4 °F 12.0 °F 66% 29.85 in 10.0 mi SSW 11.5 mph - N/A   Clear
12:54 PM 26.1 °F 13.6 °F 17.1 °F 69% 29.81 in 10.0 mi SSW 16.1 mph - N/A   Clear
1:54 PM 27.0 °F 16.1 °F 18.0 °F 69% 29.78 in 10.0 mi WSW 12.7 mph - N/A   Mostly Cloudy
2:54 PM 28.0 °F 16.5 °F 17.1 °F 63% 29.75 in 10.0 mi SW 15.0 mph - N/A   Mostly Cloudy
3:54 PM 27.0 °F 15.6 °F 16.0 °F 63% 29.75 in 10.0 mi WSW 13.8 mph - N/A   Clear
4:54 PM 26.1 °F 16.8 °F 16.0 °F 66% 29.75 in 10.0 mi SW 9.2 mph - N/A   Clear
5:54 PM 24.1 °F 18.2 °F 16.0 °F 71% 29.77 in 10.0 mi WSW 4.6 mph - N/A   Clear
7:54 PM 19.0 °F 11.1 °F 14.0 °F 81% 29.75 in 10.0 mi SW 5.8 mph - N/A   Clear
8:54 PM 19.9 °F 13.4 °F 15.1 °F 81% 29.75 in 10.0 mi SW 4.6 mph - N/A   Overcast
9:54 PM 21.9 °F 13.4 °F 17.1 °F 82% 29.73 in 10.0 mi SW 6.9 mph - N/A   Overcast
10:54 PM 23.0 °F 12.4 °F 19.0 °F 85% 29.72 in 10.0 mi SW 10.4 mph - N/A   Overcast
11:54 PM 21.9 °F 13.4 °F 18.0 °F 85% 29.70 in 9.0 mi SW 6.9 mph - N/A   Overcast